{"data":{"norad_id":58017,"epoch":"2026-05-25T05:19:13.584864Z","epoch_age_seconds":53007,"freshness":"FRESH","line1":"1 58017U 23155B   26145.22168501  .00001319  00000+0  13900-3 0  9999","line2":"2 58017  97.8354 226.7772 0002333 121.2848 238.8599 14.91035978142805","mean_motion":14.91035978,"eccentricity":0.0002333,"inclination_deg":97.8354,"raan_deg":226.7772,"arg_perigee_deg":121.2848,"mean_anomaly_deg":238.8599,"bstar":0.000139,"rev_number":14280,"period_min":96.577146443612,"perigee_km":593.07719096213,"apogee_km":596.33071855162,"semimajor_km":6972.8409547569,"source":"CELESTRAK","updated_at":"2026-05-25T13:38:00.425151Z"}}